Main page
Satellite images Climate Cyclones Lightning AirportsFAQ Languages Contact Newsletter About
Weather : Europe Africa North America South America Asia Australia-Oceania Others

4479, Mandalay, Mandalay International Airport

48042

latitude: , longitude: Myanmar, elevation: 21-59N m


METAR: VYMD 160830Z 19003KT 7000 SCT020 27/15 Q1009